Edwards AFB North Base, CA

2:36 PM PST on November 22, 2019 (GMT -0800)
Edwards AFB North Base

Weather History for K9L2 - September, 2019

Change the Weather History Date:

Thursday, September 5, 2019

  Actual Average (KEDW) Record (KEDW)
Temperature  
Mean Temperature 86 °F -  
Max Temperature 101 °F 92 °F 102 °F (2006)
Min Temperature 73 °F 60 °F 50 °F (2004)
Cooling Degree Days 21    
Growing Degree Days 36 (Base 50)    
Moisture  
Dew Point 53 °F    
Average Humidity 36    
Maximum Humidity 61    
Minimum Humidity 19    
Precipitation  
Precipitation 0.21 in - - ()
Sea Level Pressure  
Sea Level Pressure 29.91 in    
Wind  
Wind Speed 8 mph ()    
Max Wind Speed 29 mph    
Max Gust Speed 41 mph    
Visibility 8.8 miles    
Events Rain , Thunderstorm    
Averages and records for this station are not official NWS values.
T = Trace of Precipitation, MM = Missing Value Source: Averaged Metar Reports

Daily Weather History Graph

Daily Weather History Graph

Search for Another Location

Airport or City:

Astronomy

Sep. 05, 2019 Rise Set
Actual Time 6:26 AM PDT 7:12 PM PDT
Civil Twilight 6:01 AM PDT 7:38 PM PDT
Nautical Twilight 5:30 AM PDT 8:08 PM PDT
Astronomical Twilight 4:59 AM PDT 8:39 PM PDT
Moon 1:22 PM PDT (9/5) 11:48 PM PDT (9/5)
Length of Visible Light 13h 37m
Length of Day
12h 45m
Waxing Crescent, 46% of the Moon is Illuminated
Sep 5
Waxing Crescent
Sep 5
First Quarter
Sep 13
Full
Sep 21
Last Quarter
Sep 28
New

Hourly Weather History & Observations

Time (PDT) Temp. Heat Index Dew Point Humidity Pressure Visibility Wind Dir Wind Speed Gust Speed Precip Events Conditions
12:58 AM 82.2 °F - 45.7 °F 28% 29.85 in 10.0 mi SSW 5.8 mph - N/A   Clear
1:58 AM 77.2 °F - 47.5 °F 35% 29.85 in 10.0 mi SE 12.7 mph - N/A   Clear
2:34 AM 77.0 °F - 48.2 °F 36% 29.88 in 10.0 mi NE 11.5 mph - N/A   Clear
2:40 AM 77.0 °F - 48.2 °F 36% 29.88 in 10.0 mi East 12.7 mph - N/A   Clear
2:55 AM 80.6 °F - 48.2 °F 32% 29.88 in 10.0 mi East 10.4 mph - N/A   Mostly Cloudy
2:58 AM 81.1 °F - 47.5 °F 31% 29.88 in 10.0 mi NE 9.2 mph - N/A   Mostly Cloudy
3:13 AM 80.6 °F - 46.4 °F 30% 29.87 in 10.0 mi ESE 11.5 mph - N/A   Scattered Clouds
3:58 AM 78.4 °F - 47.1 °F 33% 29.87 in 10.0 mi SSE 8.1 mph - N/A   Partly Cloudy
4:58 AM 77.4 °F - 48.4 °F 36% 29.88 in 10.0 mi NW 5.8 mph - N/A   Partly Cloudy
5:58 AM 75.2 °F - 47.3 °F 37% 29.89 in 10.0 mi West 4.6 mph - N/A   Partly Cloudy
6:28 AM 75.2 °F - 46.4 °F 36% 29.92 in 10.0 mi WNW 3.5 mph - N/A   Mostly Cloudy
6:43 AM 73.4 °F - 48.2 °F 41% 29.93 in 10.0 mi Calm Calm - N/A   Scattered Clouds
6:58 AM 73.8 °F - 48.9 °F 41% 29.93 in 10.0 mi Calm Calm - N/A   Scattered Clouds
7:58 AM 77.9 °F - 47.3 °F 34% 29.95 in 9.0 mi Calm Calm - N/A   Clear
8:58 AM 83.5 °F - 48.9 °F 30% 29.97 in 10.0 mi Calm Calm - N/A   Clear
9:58 AM 88.2 °F - 48.9 °F 26% 29.96 in 9.0 mi WNW 3.5 mph - N/A   Partly Cloudy
10:58 AM 91.8 °F - 47.1 °F 21% 29.96 in 10.0 mi NW 6.9 mph - N/A   Partly Cloudy
11:58 AM 95.0 °F - 47.5 °F 20% 29.95 in 9.0 mi East 6.9 mph - N/A   Clear
12:58 PM 97.9 °F - 50.2 °F 20% 29.94 in 9.0 mi Calm Calm - N/A   Partly Cloudy
1:58 PM 97.3 °F - 50.4 °F 20% 29.91 in 9.0 mi Calm Calm - N/A   Clear
2:58 PM 99.7 °F - 50.2 °F 19% 29.89 in 9.0 mi Calm Calm - N/A   Clear
3:58 PM 93.2 °F 91.3 °F 55.4 °F 28% 29.89 in 2.8 mi East 28.8 mph 41.4 mph N/A Thunderstorm Haze
4:06 PM 93.2 °F 91.3 °F 55.4 °F 28% 29.89 in 8.0 mi ENE 16.1 mph 28.8 mph N/A Rain , Thunderstorm Light Rain
4:16 PM 91.4 °F 89.4 °F 55.4 °F 29% 29.89 in 7.0 mi NE 17.3 mph - N/A Rain Light Rain
4:27 PM 91.4 °F 89.9 °F 57.2 °F 31% 29.89 in 8.0 mi NNE 16.1 mph - N/A Rain Light Rain
4:44 PM 80.6 °F 82.3 °F 64.4 °F 58% 29.92 in 2.0 mi North 27.6 mph 36.8 mph N/A Rain Heavy Rain
4:55 PM 78.8 °F - 64.4 °F 61% 29.91 in 5.0 mi NNE 19.6 mph - N/A Rain , Thunderstorm Light Thunderstorms and Rain
4:58 PM 80.6 °F 82.3 °F 64.4 °F 58% 29.91 in 6.0 mi NNE 17.3 mph - 0.21 in Rain , Thunderstorm Light Thunderstorms and Rain
5:17 PM 80.6 °F 82.7 °F 66.2 °F 61% 29.91 in 7.0 mi NE 16.1 mph - N/A Rain Light Rain
5:23 PM 82.4 °F 84.6 °F 66.2 °F 58% 29.91 in 9.0 mi ENE 17.3 mph - N/A   Scattered Clouds
5:58 PM 84.6 °F 87.4 °F 67.5 °F 56% 29.91 in 9.0 mi East 11.5 mph - 0.00 in   Clear
6:58 PM 85.3 °F 87.6 °F 66.2 °F 53% 29.92 in 9.0 mi SE 10.4 mph - N/A   Clear
7:58 PM 86.0 °F 86.1 °F 61.0 °F 43% 29.94 in 10.0 mi SSW 8.1 mph - N/A   Partly Cloudy
8:58 PM 84.4 °F - 51.6 °F 32% 29.94 in 10.0 mi SSW 11.5 mph - N/A   Clear
9:58 PM 82.9 °F - 49.1 °F 31% 29.96 in 10.0 mi SSW 10.4 mph - N/A   Clear
10:58 PM 79.0 °F - 51.3 °F 38% 29.97 in 10.0 mi WNW 8.1 mph - N/A   Clear
11:58 PM 77.0 °F - 50.4 °F 39% 29.96 in 10.0 mi WSW 5.8 mph - N/A   Clear